AKU318 YBBN-NZWN

Flight info

Callsign AKU318
Flight time N/A
Altitude 39000
Route SCOTT J208 LHI M639 GULUT
Aircraft B77L/H-SDE1E2E3FGHIJ2J3J4J5M1RWXY/LB1D1

Departure

Time N/A
Airport Brisbane International Airport (YBBN)

Arrival

Time 2026-05-06 00:35
Airport Wellington International Airport (NZWN)
Time Latitude Longitude Altitude Speed Heading
2026-05-05 22:53 -33.92821 162.30923 39119 ft 520 kts 133°
2026-05-05 22:53 -33.95174 162.34244 39117 ft 521 kts 133°
2026-05-05 22:54 -33.99877 162.40892 39122 ft 521 kts 133°
2026-05-05 22:54 -34.04582 162.47555 39121 ft 522 kts 133°
2026-05-05 22:55 -34.09291 162.54237 39121 ft 523 kts 133°
2026-05-05 22:55 -34.13997 162.60927 39124 ft 524 kts 133°
2026-05-05 22:56 -34.18712 162.67644 39124 ft 524 kts 133°
2026-05-05 22:56 -34.23397 162.74329 39124 ft 525 kts 133°
2026-05-05 22:57 -34.28119 162.81081 39132 ft 525 kts 133°
2026-05-05 22:57 -34.32832 162.87833 39125 ft 525 kts 133°
2026-05-05 22:58 -34.37544 162.94598 39134 ft 525 kts 133°
2026-05-05 22:58 -34.42249 163.01362 39126 ft 524 kts 133°
2026-05-05 22:59 -34.46934 163.08108 39130 ft 522 kts 133°
2026-05-05 22:59 -34.51568 163.14794 39125 ft 520 kts 133°
2026-05-05 23:00 -34.58523 163.24855 39129 ft 518 kts 133°
2026-05-05 23:00 -34.63144 163.31557 39132 ft 517 kts 133°
2026-05-05 23:01 -34.67757 163.38259 39130 ft 517 kts 133°
2026-05-05 23:01 -34.72384 163.44993 39147 ft 520 kts 133°
2026-05-05 23:02 -34.77032 163.51771 39153 ft 523 kts 133°
2026-05-05 23:02 -34.81709 163.58606 39141 ft 526 kts 133°
2026-05-05 23:03 -34.86358 163.65415 39141 ft 526 kts 133°
2026-05-05 23:03 -34.91034 163.72277 39140 ft 525 kts 133°
2026-05-05 23:04 -34.95684 163.79113 39142 ft 523 kts 133°
2026-05-05 23:04 -35.00310 163.85927 39148 ft 521 kts 133°
2026-05-05 23:05 -35.04927 163.92740 39148 ft 520 kts 133°
2026-05-05 23:05 -35.09528 163.99543 39148 ft 519 kts 133°
2026-05-05 23:06 -35.14117 164.06342 39153 ft 518 kts 133°
2026-05-05 23:06 -35.18700 164.13144 39157 ft 518 kts 133°
2026-05-05 23:07 -35.23276 164.19950 39155 ft 518 kts 133°
2026-05-05 23:07 -35.27855 164.26773 39155 ft 519 kts 133°
2026-05-05 23:08 -35.32428 164.33601 39160 ft 519 kts 133°
2026-05-05 23:08 -35.36999 164.40440 39158 ft 519 kts 133°
2026-05-05 23:09 -35.41562 164.47282 39158 ft 518 kts 133°
2026-05-05 23:09 -35.46093 164.54087 39163 ft 518 kts 133°
2026-05-05 23:10 -35.50640 164.60930 39167 ft 517 kts 133°
2026-05-05 23:10 -35.55186 164.67786 39167 ft 517 kts 133°
2026-05-05 23:11 -35.59720 164.74637 39170 ft 517 kts 133°
2026-05-05 23:11 -35.64244 164.81487 39172 ft 516 kts 133°
2026-05-05 23:12 -35.68765 164.88345 39171 ft 516 kts 132°
2026-05-05 23:12 -35.73270 164.95193 39175 ft 515 kts 132°
2026-05-05 23:13 -35.77772 165.02050 39177 ft 514 kts 132°
2026-05-05 23:13 -35.82267 165.08909 39177 ft 514 kts 132°
2026-05-05 23:14 -35.86751 165.15767 39177 ft 513 kts 132°
2026-05-05 23:14 -35.91227 165.22625 39184 ft 512 kts 132°
2026-05-05 23:15 -35.95667 165.29442 39167 ft 512 kts 132°
2026-05-05 23:15 -36.00120 165.36292 39174 ft 511 kts 132°
2026-05-05 23:16 -36.04571 165.43152 39188 ft 511 kts 132°
2026-05-05 23:16 -36.09009 165.50008 39192 ft 510 kts 132°
2026-05-05 23:17 -36.13444 165.56872 39188 ft 510 kts 132°
2026-05-05 23:17 -36.17866 165.63729 39191 ft 510 kts 132°
2026-05-05 23:18 -36.22290 165.70603 39198 ft 510 kts 132°
2026-05-05 23:18 -36.26711 165.77487 39198 ft 510 kts 132°
2026-05-05 23:19 -36.31130 165.84383 39198 ft 510 kts 132°
2026-05-05 23:19 -36.35509 165.91228 39197 ft 510 kts 132°
2026-05-05 23:20 -36.39917 165.98133 39198 ft 510 kts 132°
2026-05-05 23:20 -36.44321 166.05048 39205 ft 510 kts 131°
2026-05-05 23:21 -36.48719 166.11965 39206 ft 510 kts 131°
2026-05-05 23:21 -36.53110 166.18886 39208 ft 510 kts 131°
2026-05-05 23:22 -36.57498 166.25816 39210 ft 509 kts 131°
2026-05-05 23:22 -36.61879 166.32750 39211 ft 509 kts 131°
2026-05-05 23:23 -36.66252 166.39686 39217 ft 509 kts 131°
2026-05-05 23:23 -36.70589 166.46577 39210 ft 508 kts 131°
2026-05-05 23:24 -36.74947 166.53518 39217 ft 508 kts 131°
2026-05-05 23:24 -36.79298 166.60461 39218 ft 508 kts 131°
2026-05-05 23:25 -36.83644 166.67409 39218 ft 507 kts 131°
2026-05-05 23:25 -36.87977 166.74353 39220 ft 507 kts 131°
2026-05-05 23:26 -36.92307 166.81304 39221 ft 506 kts 131°
2026-05-05 23:26 -36.96625 166.88251 39229 ft 506 kts 131°
2026-05-05 23:27 -37.00944 166.95215 39228 ft 506 kts 131°
2026-05-05 23:27 -37.04529 167.01006 39230 ft 506 kts 131°
2026-05-05 23:28 -37.09543 167.09123 39227 ft 506 kts 131°
2026-05-05 23:28 -37.13852 167.16112 39232 ft 507 kts 131°
2026-05-05 23:29 -37.17460 167.21978 39237 ft 507 kts 131°
2026-05-05 23:29 -37.21736 167.28942 39235 ft 507 kts 131°
2026-05-05 23:30 -37.26060 167.36000 39235 ft 507 kts 131°
2026-05-05 23:30 -37.30330 167.42983 39237 ft 507 kts 131°
2026-05-05 23:31 -37.34623 167.50019 39239 ft 507 kts 130°
2026-05-05 23:31 -37.38912 167.57064 39237 ft 507 kts 131°
2026-05-05 23:32 -37.43194 167.64112 39244 ft 507 kts 131°
2026-05-05 23:32 -37.47478 167.71176 39248 ft 507 kts 130°
2026-05-05 23:33 -37.51749 167.78236 39252 ft 507 kts 131°
2026-05-05 23:33 -37.56017 167.85307 39252 ft 507 kts 131°
2026-05-05 23:34 -37.60289 167.92396 39251 ft 507 kts 131°
2026-05-05 23:34 -37.64551 167.99488 39254 ft 507 kts 130°
2026-05-05 23:35 -37.68806 168.06580 39254 ft 506 kts 130°
2026-05-05 23:35 -37.73021 168.13623 39253 ft 505 kts 130°
2026-05-05 23:36 -37.77251 168.20706 39256 ft 504 kts 130°
2026-05-05 23:36 -37.81471 168.27785 39255 ft 503 kts 130°
2026-05-05 23:37 -37.85680 168.34862 39262 ft 503 kts 130°
2026-05-05 23:37 -37.89880 168.41941 39266 ft 502 kts 130°
2026-05-05 23:38 -37.94045 168.48973 39263 ft 502 kts 130°
2026-05-05 23:38 -37.98225 168.56047 39270 ft 501 kts 130°
2026-05-05 23:39 -38.02404 168.63134 39267 ft 501 kts 130°
2026-05-05 23:39 -38.06574 168.70221 39272 ft 501 kts 130°
2026-05-05 23:40 -38.10737 168.77311 39275 ft 501 kts 130°
2026-05-05 23:40 -38.14900 168.84418 39278 ft 501 kts 130°
2026-05-05 23:41 -38.19060 168.91534 39278 ft 501 kts 130°
2026-05-05 23:41 -38.23211 168.98651 39274 ft 501 kts 130°
2026-05-05 23:42 -38.27365 169.05788 39285 ft 501 kts 130°
2026-05-05 23:42 -38.31509 169.12924 39288 ft 501 kts 130°
2026-05-05 23:43 -38.35645 169.20061 39291 ft 501 kts 130°
2026-05-05 23:43 -38.39747 169.27156 39284 ft 501 kts 130°
2026-05-05 23:44 -38.43874 169.34308 39295 ft 500 kts 130°
2026-05-05 23:44 -38.47993 169.41463 39309 ft 500 kts 130°
2026-05-05 23:45 -38.52105 169.48621 39298 ft 500 kts 130°
2026-05-05 23:45 -38.56211 169.55784 39295 ft 500 kts 129°
2026-05-05 23:46 -38.60311 169.62954 39306 ft 499 kts 129°
2026-05-05 23:46 -38.64403 169.70125 39304 ft 499 kts 129°
2026-05-05 23:47 -38.68467 169.77262 39308 ft 498 kts 129°
2026-05-05 23:47 -38.72542 169.84435 39311 ft 498 kts 129°
2026-05-05 23:48 -38.76609 169.91611 39313 ft 497 kts 129°
2026-05-05 23:48 -38.80666 169.98783 39314 ft 497 kts 129°
2026-05-05 23:49 -38.84711 170.05951 39312 ft 496 kts 129°
2026-05-05 23:49 -38.88743 170.13111 39316 ft 495 kts 129°
2026-05-05 23:50 -38.92763 170.20266 39317 ft 494 kts 129°
2026-05-05 23:50 -38.96768 170.27411 39322 ft 493 kts 129°
2026-05-05 23:51 -39.00767 170.34559 39320 ft 491 kts 129°
2026-05-05 23:51 -39.04750 170.41697 39322 ft 490 kts 129°
2026-05-05 23:52 -39.08720 170.48826 39326 ft 490 kts 128°
2026-05-05 23:52 -39.12678 170.55947 39326 ft 489 kts 128°
2026-05-05 23:53 -39.16602 170.63026 39330 ft 488 kts 128°
2026-05-05 23:53 -39.20540 170.70145 39329 ft 487 kts 128°
2026-05-05 23:54 -39.24470 170.77264 39333 ft 487 kts 128°
2026-05-05 23:54 -39.28391 170.84384 39333 ft 487 kts 128°
2026-05-05 23:55 -39.32309 170.91515 39332 ft 486 kts 128°
2026-05-05 23:55 -39.36222 170.98651 39336 ft 486 kts 128°
2026-05-05 23:56 -39.40125 171.05787 39336 ft 486 kts 127°
2026-05-05 23:56 -39.44022 171.12927 39338 ft 486 kts 127°
2026-05-05 23:57 -39.47925 171.20062 39340 ft 485 kts 129°
2026-05-05 23:57 -39.52283 171.26691 39339 ft 482 kts 135°
2026-05-05 23:58 -39.56886 171.33030 39344 ft 482 kts 136°
2026-05-05 23:58 -39.61432 171.39372 39347 ft 483 kts 135°
2026-05-05 23:59 -39.65951 171.45830 39350 ft 484 kts 134°
2026-05-05 23:59 -39.70451 171.52333 39345 ft 484 kts 134°
2026-05-06 00:00 -39.74954 171.58864 39348 ft 485 kts 134°
2026-05-06 00:00 -39.79461 171.65404 39347 ft 485 kts 134°
2026-05-06 00:01 -39.83966 171.71952 39345 ft 486 kts 134°
2026-05-06 00:01 -39.88482 171.78529 39353 ft 486 kts 134°
2026-05-06 00:02 -39.92964 171.85071 39357 ft 487 kts 134°
2026-05-06 00:02 -39.97472 171.91666 39345 ft 488 kts 134°
2026-05-06 00:03 -40.01983 171.98278 39347 ft 488 kts 134°
2026-05-06 00:03 -40.06493 172.04904 39350 ft 488 kts 134°
2026-05-06 00:04 -40.11001 172.11540 39352 ft 488 kts 134°
2026-05-06 00:04 -40.15510 172.18193 39354 ft 488 kts 134°
2026-05-06 00:05 -40.20020 172.24861 38229 ft 487 kts 134°
2026-05-06 00:05 -40.22250 172.28167 37747 ft 481 kts 134°
2026-05-06 00:05 -40.24449 172.31432 37299 ft 475 kts 135°
2026-05-06 00:06 -40.26622 172.34660 36879 ft 469 kts 135°
2026-05-06 00:06 -40.28764 172.37846 36458 ft 464 kts 135°
2026-05-06 00:06 -40.30885 172.41000 36038 ft 458 kts 135°
2026-05-06 00:06 -40.32955 172.44083 35582 ft 454 kts 136°
2026-05-06 00:07 -40.35030 172.47174 35166 ft 450 kts 136°
2026-05-06 00:07 -40.37085 172.50241 34740 ft 445 kts 136°
2026-05-06 00:07 -40.39120 172.53279 34310 ft 441 kts 136°
2026-05-06 00:07 -40.41137 172.56293 33822 ft 437 kts 136°
2026-05-06 00:08 -40.43132 172.59276 33374 ft 433 kts 136°
2026-05-06 00:08 -40.45107 172.62233 32940 ft 429 kts 136°
2026-05-06 00:08 -40.47064 172.65167 32499 ft 425 kts 136°
2026-05-06 00:08 -40.49005 172.68079 32057 ft 421 kts 136°
2026-05-06 00:09 -40.50927 172.70965 31642 ft 418 kts 135°
2026-05-06 00:09 -40.52832 172.73828 31227 ft 414 kts 135°
2026-05-06 00:09 -40.54720 172.76669 30818 ft 411 kts 135°
2026-05-06 00:09 -40.56597 172.79495 30410 ft 408 kts 135°
2026-05-06 00:10 -40.58454 172.82294 29928 ft 404 kts 135°
2026-05-06 00:10 -40.60296 172.85074 29495 ft 401 kts 135°
2026-05-06 00:10 -40.62115 172.87823 29094 ft 397 kts 135°
2026-05-06 00:10 -40.63922 172.90555 28685 ft 393 kts 135°
2026-05-06 00:11 -40.65687 172.93224 28296 ft 390 kts 135°
2026-05-06 00:11 -40.67459 172.95909 27895 ft 386 kts 134°
2026-05-06 00:11 -40.69219 172.98575 27511 ft 383 kts 134°
2026-05-06 00:11 -40.70960 173.01216 27124 ft 380 kts 134°
2026-05-06 00:12 -40.72690 173.03843 26745 ft 378 kts 134°
2026-05-06 00:12 -40.74402 173.06444 26370 ft 375 kts 134°
2026-05-06 00:12 -40.76109 173.09039 25995 ft 373 kts 134°
2026-05-06 00:12 -40.77803 173.11618 25619 ft 371 kts 134°
2026-05-06 00:13 -40.79486 173.14182 25255 ft 369 kts 134°
2026-05-06 00:13 -40.81162 173.16738 24883 ft 367 kts 134°
2026-05-06 00:13 -40.82827 173.19278 24530 ft 366 kts 133°
2026-05-06 00:13 -40.84489 173.21815 24151 ft 365 kts 133°
2026-05-06 00:14 -40.86145 173.24346 23747 ft 364 kts 133°
2026-05-06 00:14 -40.87787 173.26859 23335 ft 362 kts 133°
2026-05-06 00:14 -40.89430 173.29374 22943 ft 360 kts 133°
2026-05-06 00:14 -40.91059 173.31871 22568 ft 358 kts 133°
2026-05-06 00:15 -40.92681 173.34358 22188 ft 356 kts 132°
2026-05-06 00:15 -40.94293 173.36833 21816 ft 354 kts 132°
2026-05-06 00:15 -40.95894 173.39292 21459 ft 352 kts 132°
2026-05-06 00:15 -40.97493 173.41750 21094 ft 351 kts 132°
2026-05-06 00:16 -40.99085 173.44199 20733 ft 350 kts 131°
2026-05-06 00:16 -41.00671 173.46642 20357 ft 349 kts 131°
2026-05-06 00:16 -41.02252 173.49078 19998 ft 349 kts 131°
2026-05-06 00:16 -41.03300 173.50695 19744 ft 349 kts 131°
2026-05-06 00:17 -41.04878 173.53129 19385 ft 348 kts 130°
2026-05-06 00:17 -41.06970 173.56361 18902 ft 349 kts 130°
2026-05-06 00:17 -41.08035 173.58008 18647 ft 349 kts 130°
2026-05-06 00:17 -41.09617 173.60456 18208 ft 350 kts 130°
2026-05-06 00:18 -41.11201 173.62909 17812 ft 349 kts 130°
2026-05-06 00:18 -41.12778 173.65354 17431 ft 348 kts 130°
2026-05-06 00:18 -41.14331 173.67762 17028 ft 348 kts 130°
2026-05-06 00:18 -41.15898 173.70193 16667 ft 346 kts 130°
2026-05-06 00:19 -41.17464 173.72628 16293 ft 346 kts 130°
2026-05-06 00:19 -41.19028 173.75060 15921 ft 346 kts 130°
2026-05-06 00:19 -41.20589 173.77489 15544 ft 346 kts 130°
2026-05-06 00:19 -41.22150 173.79920 15172 ft 345 kts 130°
2026-05-06 00:20 -41.23713 173.82354 14797 ft 346 kts 130°
2026-05-06 00:20 -41.25271 173.84786 14414 ft 346 kts 130°
2026-05-06 00:20 -41.26836 173.87229 14041 ft 347 kts 130°
2026-05-06 00:20 -41.28404 173.89679 13603 ft 348 kts 130°
2026-05-06 00:21 -41.29952 173.92099 13221 ft 347 kts 130°
2026-05-06 00:21 -41.31512 173.94549 12821 ft 344 kts 128°
2026-05-06 00:21 -41.32681 173.97214 12195 ft 326 kts 108°
2026-05-06 00:21 -41.33379 173.99986 11797 ft 308 kts 106°
2026-05-06 00:22 -41.34043 174.02619 11442 ft 296 kts 107°
2026-05-06 00:22 -41.34714 174.05219 11129 ft 299 kts 107°
2026-05-06 00:22 -41.35405 174.07846 10806 ft 302 kts 108°
2026-05-06 00:22 -41.36107 174.10495 10476 ft 306 kts 108°
2026-05-06 00:23 -41.36822 174.13175 10179 ft 307 kts 108°
2026-05-06 00:23 -41.37524 174.15807 10019 ft 297 kts 108°
2026-05-06 00:23 -41.38203 174.18360 9758 ft 290 kts 108°
2026-05-06 00:23 -41.38872 174.20877 9445 ft 286 kts 108°
2026-05-06 00:24 -41.39533 174.23367 9145 ft 285 kts 108°
2026-05-06 00:24 -41.40193 174.25858 8846 ft 286 kts 108°
2026-05-06 00:24 -41.40857 174.28365 8532 ft 289 kts 108°
2026-05-06 00:24 -41.41528 174.30902 8235 ft 292 kts 109°
2026-05-06 00:25 -41.42200 174.33447 7924 ft 290 kts 109°
2026-05-06 00:25 -41.42864 174.35962 7607 ft 286 kts 109°
2026-05-06 00:25 -41.43522 174.38457 7308 ft 283 kts 109°
2026-05-06 00:25 -41.44174 174.40929 7007 ft 283 kts 109°
2026-05-06 00:26 -41.44832 174.43428 6716 ft 287 kts 110°
2026-05-06 00:26 -41.45489 174.45928 6387 ft 290 kts 110°
2026-05-06 00:26 -41.46154 174.48454 6052 ft 287 kts 109°
2026-05-06 00:26 -41.46810 174.50951 5726 ft 283 kts 109°
2026-05-06 00:27 -41.47453 174.53406 5443 ft 278 kts 109°
2026-05-06 00:27 -41.48083 174.55813 5341 ft 271 kts 109°
2026-05-06 00:27 -41.48698 174.58163 5220 ft 268 kts 109°
2026-05-06 00:27 -41.49201 174.60562 5004 ft 271 kts 95°
2026-05-06 00:28 -41.49326 174.63089 4734 ft 275 kts 89°
2026-05-06 00:28 -41.49382 174.65649 4426 ft 274 kts 88°
2026-05-06 00:28 -41.49451 174.68174 4135 ft 272 kts 89°
2026-05-06 00:28 -41.49526 174.70678 3881 ft 267 kts 89°
2026-05-06 00:29 -41.49613 174.73101 3740 ft 257 kts 89°
2026-05-06 00:29 -41.49701 174.75470 3471 ft 254 kts 88°
2026-05-06 00:29 -41.49753 174.77798 3161 ft 244 kts 76°
2026-05-06 00:29 -41.49143 174.79663 3009 ft 201 kts 32°
2026-05-06 00:30 -41.48056 174.80415 2905 ft 162 kts 353°
2026-05-06 00:30 -41.47037 174.80188 2761 ft 153 kts 341°
2026-05-06 00:30 -41.45936 174.80061 2528 ft 160 kts 350°
2026-05-06 00:30 -41.44838 174.79979 2311 ft 156 kts 350°
2026-05-06 00:31 -41.43778 174.79965 2109 ft 146 kts 353°
2026-05-06 00:31 -41.42822 174.80015 1912 ft 128 kts 354°
2026-05-06 00:31 -41.41965 174.80068 1731 ft 117 kts 353°
2026-05-06 00:31 -41.41174 174.80117 1600 ft 116 kts 354°
2026-05-06 00:32 -41.40378 174.80171 1442 ft 112 kts 354°
2026-05-06 00:32 -41.39612 174.80223 1292 ft 108 kts 354°
2026-05-06 00:32 -41.38856 174.80272 1139 ft 111 kts 354°
2026-05-06 00:32 -41.38058 174.80325 972 ft 118 kts 359°
2026-05-06 00:33 -41.37231 174.80382 813 ft 119 kts
2026-05-06 00:33 -41.36799 174.80413 724 ft 115 kts 359°
2026-05-06 00:33 -41.36019 174.80466 575 ft 111 kts
2026-05-06 00:34 -41.35243 174.80519 417 ft 118 kts
2026-05-06 00:34 -41.34458 174.80572 267 ft 118 kts
2026-05-06 00:34 -41.33646 174.80622 94 ft 117 kts
2026-05-06 00:34 -41.32978 174.80670 31 ft 100 kts
2026-05-06 00:35 -41.32569 174.80698 34 ft 33 kts
2026-05-06 00:35 -41.32354 174.80713 42 ft 30 kts
2026-05-06 00:35 -41.32145 174.80727 49 ft 30 kts
2026-05-06 00:35 -41.31940 174.80739 52 ft 30 kts
2026-05-06 00:36 -41.31781 174.80783 49 ft 15 kts 61°
2026-05-06 00:36 -41.31841 174.80870 53 ft 16 kts 180°
2026-05-06 00:36 -41.31955 174.80866 49 ft 17 kts 182°
2026-05-06 00:36 -41.32089 174.80857 47 ft 22 kts 183°
2026-05-06 00:37 -41.32253 174.80845 46 ft 26 kts 184°
2026-05-06 00:37 -41.32447 174.80833 38 ft 30 kts 181°
2026-05-06 00:37 -41.32639 174.80819 31 ft 23 kts 184°
2026-05-06 00:37 -41.32713 174.80850 31 ft 9 kts 118°
2026-05-06 00:38 -41.32713 174.80908 31 ft 6 kts 104°
2026-05-06 00:38 -41.32747 174.80955 31 ft 6 kts 140°
2026-05-06 00:38 -41.32757 174.80966 30 ft 2 kts 140°
2026-05-06 00:38 -41.32758 174.80966 30 ft 0 kts 140°